Helicity
88 82 97 93 87 85 93 112 134 113 82 66 49 50 55 49 43 40 42 32 38 38 46 38 26 27 29 29 16 25 35 51 50 61 86 91 93 84 63 68 91 111 112
95 118 126 133 157 162 167 143 116 99 80 64 60 74 67 60 59 56 63 86 92 133 162 140 87 44 43 54 60 44 43 43 42 59 62 77 93 92 93 85 75 86 107
156 210 209 217 200 172 150 132 128 102 96 97 87 84 71 65 73 90 124 132 134 155 185 206 237 204 137 136 115 62 61 74 54 54 64 68 62 61 75 86 93 95 99
257 226 201 198 188 173 149 133 104 90 93 85 65 68 68 70 109 136 119 111 115 98 102 154 179 197 227 197 173 182 176 170 137 151 151 123 100 77 67 56 73 87 96
235 215 187 177 173 150 137 112 103 86 59 60 49 44 57 72 89 75 90 91 103 84 70 72 93 111 136 149 160 161 127 123 114 133 64 88 105 36 74 92 101 91 62
215 178 155 150 137 117 113 91 79 63 29 24 31 47 47 63 61 88 87 110 90 83 79 49 22 14 65 68 79 84 79 95 47 80 98 85 79 71 49 46 -6 45 81
155 137 114 108 90 81 68 56 24 30 34 46 21 52 43 58 87 69 95 90 86 70 37 20 11 24 59 99 76 87 89 87 102 131 162 174 201 193 111 78 94 73 100
110 96 77 64 68 56 55 50 40 27 23 32 -1 -14 -12 -0 66 70 50 61 44 32 45 57 63 67 59 55 81 144 125 153 182 231 254 224 200 173 219 218 227 269 232
90 76 69 52 38 32 42 42 54 53 35 42 70 35 7 25 38 34 27 49 43 51 54 55 48 54 66 46 49 70 124 188 245 265 259 243 247 258 210 228 180 208 205
79 65 52 32 23 22 53 49 62 57 64 68 62 89 97 102 69 62 120 67 56 75 63 74 66 71 64 61 55 92 124 185 183 198 229 240 224 263 254 280 222 223 241
64 47 33 24 25 35 51 75 86 97 82 78 83 78 90 97 110 139 102 117 104 114 108 108 109 96 80 68 83 105 116 154 176 184 201 208 210 199 194 175 211 172 215
39 44 42 36 40 57 70 78 84 92 85 88 94 100 120 121 117 131 122 118 122 141 148 152 135 125 89 109 129 80 136 161 161 175 140 162 170 171 159 203 176 202 210
50 46 45 44 43 60 81 88 88 90 90 98 103 119 134 139 170 180 184 174 176 181 185 161 148 133 166 149 95 139 140 99 105 116 118 116 138 144 135 147 143 152 170
70 61 64 70 68 76 88 90 89 94 97 105 106 128 145 158 167 170 202 213 209 210 195 169 155 145 119 142 148 88 105 107 79 73 77 96 97 88 102 69 78 104 120
88 88 90 79 71 80 91 92 96 99 105 111 124 137 166 156 151 165 195 205 229 255 238 173 163 122 147 137 119 118 125 81 53 54 60 63 78 73 83 105 112 121 91
102 101 89 79 81 96 99 101 106 105 112 122 128 157 162 154 166 171 182 208 234 239 270 190 161 150 134 137 131 120 132 48 53 45 45 48 74 63 61 59 75 78 96
112 98 94 93 98 104 103 102 100 96 124 136 147 166 163 147 164 172 180 197 222 253 246 192 175 142 132 140 155 134 117 103 105 39 32 49 40 39 39 35 37 51 65
103 108 112 108 110 102 95 98 111 125 140 157 153 155 159 155 153 158 189 201 219 204 216 190 174 158 150 154 155 108 101 108 119 92 56 33 30 33 33 39 42 60 72
122 121 115 107 100 97 100 110 125 131 143 151 156 159 145 145 156 177 185 204 185 173 162 174 188 199 211 179 168 140 148 131 143 71 47 25 23 20 27 71 58 65 85
116 114 110 105 96 92 99 100 115 132 147 160 152 148 141 153 164 164 163 164 163 162 158 182 202 212 227 189 131 129 105 128 129 119 67 39 16 37 39 25 26 38 54
119 108 102 93 89 99 99 102 117 142 159 156 152 147 144 118 104 133 175 155 138 147 164 180 210 223 140 101 91 126 148 139 138 115 91 140 86 101 99 45 32 30 56
108 99 92 90 102 102 77 71 105 150 160 164 155 150 161 122 115 112 89 72 75 128 143 201 163 167 129 115 139 177 170 104 67 106 123 128 121 114 108 103 32 27 56
100 91 91 107 117 123 85 96 96 137 172 174 172 178 174 146 108 121 80 58 81 79 76 130 142 133 122 138 151 90 57 122 143 143 84 76 126 121 136 79 27 17 11
102 99 107 118 136 130 95 86 96 156 174 171 173 173 145 116 99 72 87 92 109 103 89 109 114 134 116 97 57 46 7 41 130 136 91 77 82 99 60 78 73 36 17
106 112 122 128 135 123 90 115 137 170 171 182 184 155 123 114 64 43 56 93 101 82 30 48 46 46 25 26 33 -32 37 -12 11 71 118 124 138 123 75 147 171 57 54
105 126 121 118 98 126 112 109 145 177 187 185 167 138 75 83 49 12 59 85 72 61 4 55 30 39 61 64 1 3 -7 5 41 85 155 92 94 54 -18 103 121 114 126
Wind_Speed
37 40 43 43 46 49 52 53 55 57 60 62 64 67 69 68 69 68 70 72 73 77 78 78 76 73 73 71 70 70 74 71 68 62 58 57 56 57 59 58 56 55 55
39 41 42 47 50 51 52 54 58 60 63 65 69 70 70 69 72 73 73 74 77 77 77 78 80 76 79 79 78 77 76 79 83 78 71 67 66 65 64 66 68 67 64
37 38 43 48 51 51 54 58 62 64 67 70 71 71 74 74 73 75 72 68 69 71 74 76 75 74 73 76 80 81 84 85 87 88 85 84 80 78 77 75 74 75 77
38 40 45 49 51 53 57 59 64 68 69 71 72 73 73 72 70 67 68 71 71 70 72 74 78 72 77 79 79 79 80 82 79 82 84 87 89 90 89 87 85 84 85
41 42 46 50 53 55 59 61 65 66 69 73 71 71 73 67 66 69 74 75 73 77 74 76 76 79 82 86 86 86 87 91 95 96 95 95 95 92 90 89 91 97 97
42 43 47 52 54 57 61 63 66 67 68 74 70 76 68 61 69 69 80 74 77 73 77 76 80 85 90 87 91 91 93 96 100 100 102 101 100 98 95 94 94 94 96
43 46 49 53 56 59 61 63 64 68 69 76 71 79 64 65 59 85 74 75 76 77 78 86 87 88 85 93 94 102 105 107 105 100 98 98 98 99 98 97 99 100 98
45 49 52 55 57 59 61 64 67 68 63 74 76 72 76 70 67 89 75 78 72 85 84 85 90 85 92 88 92 101 101 102 100 102 102 102 102 103 103 104 104 102 99
47 50 52 55 57 59 62 63 66 68 70 70 76 70 79 82 104 67 92 73 96 82 92 88 90 95 87 95 101 102 105 106 107 108 111 110 110 109 109 110 106 107 108
49 51 53 55 57 59 62 63 65 67 71 77 75 68 69 78 95 103 77 98 81 96 93 93 96 89 100 97 108 100 103 113 109 113 114 113 112 113 110 112 112 109 105
50 51 54 56 60 61 62 64 68 70 71 73 76 81 82 83 81 93 116 99 96 92 95 93 93 101 96 104 95 101 115 111 114 117 114 114 115 117 117 114 117 115 113
50 54 57 60 61 63 64 65 67 71 74 75 77 80 84 91 96 98 111 115 114 106 96 96 97 95 96 91 105 114 101 110 116 114 115 115 116 116 115 117 119 121 120
52 57 60 63 65 65 66 68 70 74 76 79 82 83 83 85 85 92 103 117 120 115 108 99 93 91 94 99 98 99 110 117 105 110 113 114 113 115 115 114 115 117 120
53 59 63 65 67 69 69 71 73 75 77 81 84 85 85 83 83 90 98 109 131 126 116 112 97 97 99 89 102 111 104 105 112 111 113 111 110 107 109 110 110 113 115
56 62 65 68 70 71 73 75 77 80 81 83 84 84 83 85 88 87 89 91 105 134 136 122 118 100 97 101 100 99 103 105 110 106 107 106 106 104 107 107 112 115 117
60 65 68 70 72 74 75 77 79 81 82 84 85 86 87 91 93 91 90 89 93 104 130 115 115 106 105 100 100 101 99 104 101 104 102 100 99 105 110 118 116 117 118
64 67 71 73 75 77 78 80 81 81 85 86 84 88 95 97 97 94 93 91 93 91 106 116 106 105 108 110 109 102 101 100 94 91 92 102 108 109 120 118 115 113 113
65 69 72 74 77 78 79 81 83 85 86 86 92 96 99 100 98 95 93 93 91 92 96 106 106 106 107 107 105 109 103 94 91 89 104 110 117 118 110 114 114 113 113
68 71 73 77 78 79 81 82 83 85 85 90 92 98 102 101 101 97 95 93 92 90 89 95 103 101 103 101 103 105 101 98 95 96 98 105 103 103 100 106 116 111 109
69 72 75 77 78 80 83 84 86 88 91 91 93 96 101 99 98 97 95 93 89 94 95 98 100 98 99 100 102 110 111 92 96 88 93 95 90 86 102 97 98 99 99
69 73 76 77 79 84 84 91 93 93 94 95 95 97 96 92 96 92 91 95 96 96 94 96 95 103 109 111 107 97 97 99 93 88 85 76 85 83 79 78 78 84 93
72 74 76 79 85 87 90 94 95 95 95 97 101 102 96 94 91 92 93 91 89 94 98 95 100 105 105 98 88 89 83 95 106 78 71 78 72 75 67 66 54 83 103
73 75 79 83 87 90 93 96 97 96 96 97 99 99 98 91 91 91 93 93 92 88 92 97 98 95 89 82 75 84 74 60 58 64 51 56 73 41 57 35 62 72 81
73 77 82 85 90 91 94 97 99 95 95 95 96 93 92 92 91 97 99 98 97 88 88 84 81 78 73 67 54 46 53 49 44 43 36 56 39 42 54 49 46 50 58
75 79 84 88 91 91 95 98 99 99 101 101 94 89 89 94 95 102 102 99 94 88 82 85 80 68 47 42 40 52 39 47 49 39 36 36 38 46 49 46 33 39 32
77 83 86 86 87 91 93 96 99 99 101 100 94 90 90 93 97 95 94 92 91 93 100 82 82 49 46 38 39 34 43 45 43 42 34 31 37 48 47 28 17 23 25
Wind_Direction
355 356 352 354 351 347 345 344 344 341 338 336 334 331 328 328 327 327 324 322 321 318 316 314 312 312 313 312 311 309 308 308 307 301 295 292 289 285 284 282 276 272 270
349 351 355 350 351 352 351 349 344 340 335 333 330 329 328 328 326 325 325 323 320 318 318 317 313 313 311 311 310 310 310 308 305 306 303 296 291 288 285 282 280 277 272
358 360 355 353 353 354 351 346 341 339 335 332 329 329 326 325 326 325 328 331 330 327 325 323 324 323 322 320 315 312 311 311 308 306 304 303 299 293 288 285 282 279 277
5 359 355 353 354 353 349 346 342 337 336 334 331 330 329 329 329 333 332 331 331 331 329 328 325 328 325 323 322 322 319 319 321 318 312 308 303 299 295 290 285 282 279
5 3 359 355 354 353 348 345 342 341 338 334 334 334 331 333 336 334 331 330 330 329 329 328 327 326 324 321 319 318 317 315 312 311 309 307 305 303 300 296 294 290 283
8 5 0 357 356 352 347 344 341 340 339 334 334 331 335 338 336 336 332 332 332 332 331 330 328 324 321 321 319 318 316 314 313 310 309 307 304 302 301 298 295 292 289
6 2 360 356 354 351 348 345 343 340 339 338 337 333 339 338 340 334 334 334 333 332 332 329 326 325 324 321 319 316 314 312 312 312 311 309 306 302 300 298 295 293 291
4 2 359 356 354 351 348 346 344 342 344 343 339 338 332 334 333 330 335 332 332 330 329 328 326 325 324 323 322 318 316 315 314 312 310 308 306 303 300 297 295 292 292
3 1 359 358 355 352 348 347 346 345 341 343 343 342 332 328 325 332 328 332 325 328 327 326 325 323 324 322 320 318 315 314 312 310 308 305 304 301 297 295 294 292 289
2 360 358 357 355 352 348 347 346 345 343 339 341 342 338 332 327 323 329 326 329 326 326 325 324 325 322 321 318 318 317 313 312 309 307 304 302 300 299 296 294 292 290
1 1 358 355 352 350 347 346 344 343 343 340 337 334 332 331 330 324 320 324 325 326 326 325 325 323 323 321 321 319 315 314 312 310 307 305 303 300 298 295 292 291 287
359 357 354 352 351 349 346 345 344 342 340 338 336 334 332 329 326 324 320 320 320 323 325 325 325 324 323 324 322 318 319 317 314 311 308 305 303 301 299 296 293 290 288
353 351 351 349 347 346 345 343 341 339 338 336 335 333 331 329 328 326 322 319 318 321 322 324 325 326 325 323 323 323 320 317 315 313 309 306 304 302 299 297 295 291 288
351 349 347 346 345 344 343 342 340 339 338 336 334 332 331 330 329 327 323 321 317 318 320 321 325 324 324 326 323 320 319 318 315 313 309 307 304 302 300 298 296 294 290
347 346 346 345 344 343 342 340 339 338 337 336 334 333 332 331 330 327 324 322 320 317 317 320 320 324 324 322 322 322 319 318 315 313 311 308 305 303 301 299 296 294 290
345 344 344 343 343 342 342 340 339 338 337 337 335 334 333 332 329 327 324 323 320 317 315 320 320 321 322 322 321 321 320 318 316 313 311 309 307 303 300 297 295 293 290
343 343 343 342 342 341 341 340 339 338 337 336 336 334 332 331 329 327 325 323 321 320 317 317 319 320 320 319 320 320 319 318 316 314 313 311 307 302 300 296 294 292 290
343 342 342 342 341 341 340 339 338 337 337 336 334 333 332 331 328 327 326 324 322 321 318 317 319 320 319 320 320 319 319 320 318 314 310 308 304 301 299 296 293 291 289
342 342 342 341 341 340 339 338 337 336 336 335 335 333 332 330 329 328 327 325 323 322 322 320 319 320 321 322 322 321 320 318 317 315 313 310 307 304 301 299 295 293 290
341 341 342 341 341 340 339 338 337 335 335 335 334 333 332 330 329 328 327 327 327 325 323 321 320 322 324 325 323 322 320 322 319 319 315 312 310 309 305 304 301 297 293
342 342 342 342 342 340 339 337 336 335 334 334 334 334 333 332 330 330 330 328 326 324 324 323 322 325 324 324 324 325 322 321 321 321 320 319 315 315 314 312 309 302 295
342 342 343 342 341 340 339 337 336 335 334 333 333 333 333 332 332 331 329 327 326 326 325 326 324 324 324 326 327 326 326 325 318 328 329 323 324 319 320 319 314 300 281
342 343 343 342 341 340 339 338 337 336 335 333 333 332 332 332 331 330 328 327 326 325 324 324 323 324 326 329 330 330 323 327 326 328 324 282 324 310 324 299 263 266 266
343 343 343 343 341 341 340 339 338 338 335 334 333 333 332 332 332 330 328 327 326 328 328 328 327 328 330 332 325 309 286 291 314 318 311 280 297 273 266 263 267 269 264
344 344 343 342 341 342 342 342 340 339 337 336 336 336 336 333 332 331 330 329 331 332 333 330 331 334 320 316 314 287 303 290 289 304 297 289 276 266 266 266 273 263 259
343 343 342 343 343 343 345 344 342 340 338 338 339 338 338 337 335 335 336 337 335 332 318 334 331 341 340 325 296 297 284 284 286 290 291 291 274 267 266 264 277 267 271